K9DC Weather Reports


Display with metric or nautical units.
time (UTC)temp
F
wind
direction
speed
MPH
gust
MPH
rain 1hr
in
rain 24hr
in
rain mn
in
humidity
%
barometer
mb
20240523164004 82 123 2.0 11.0 0.00 0.00 0.00 39 1013.2
20240523163504 82 108 1.0 11.0 0.00 0.00 0.00 39 1013.1
20240523163004 81 117 4.0 14.0 0.00 0.00 0.00 41 1013.1
20240523162503 81 126 5.0 14.0 0.00 0.00 0.00 39 1013.1
20240523162003 81 138 4.0 13.0 0.00 0.00 0.00 38 1013.0
20240523161503 81 138 3.0 11.0 0.00 0.00 0.00 42 1013.0
20240523161004 81 127 3.0 12.0 0.00 0.00 0.00 42 1013.2
20240523160504 81 129 3.0 12.0 0.00 0.00 0.00 39 1013.3
20240523160004 80 130 2.0 9.0 0.00 0.00 0.00 41 1013.4
20240523155504 80 134 2.0 12.0 0.00 0.00 0.00 41 1013.5
20240523155003 80 125 2.0 12.0 0.00 0.00 0.00 40 1013.5
20240523154503 79 94 1.0 8.0 0.00 0.00 0.00 46 1013.5
20240523154004 79 103 1.0 8.0 0.00 0.00 0.00 44 1013.4
20240523153504 78 116 2.0 8.0 0.00 0.00 0.00 44 1013.4
20240523153004 78 123 3.0 10.0 0.00 0.00 0.00 47 1013.4
20240523152503 77 125 3.0 10.0 0.00 0.00 0.00 46 1013.5
20240523152004 77 139 2.0 10.0 0.00 0.00 0.00 46 1013.6
20240523151504 76 146 2.0 8.0 0.00 0.00 0.00 49 1013.8
20240523151004 76 130 3.0 14.0 0.00 0.00 0.00 48 1013.6
20240523150503 75 127 5.0 14.0 0.00 0.00 0.00 49 1013.5
20240523150004 74 125 6.0 12.0 0.00 0.00 0.00 50 1013.4
20240523145504 73 117 6.0 12.0 0.00 0.00 0.00 51 1013.5
20240523145004 72 104 5.0 12.0 0.00 0.00 0.00 57 1013.5
20240523144503 72 106 4.0 11.0 0.00 0.00 0.00 58 1013.3
20240523144003 71 115 2.0 9.0 0.00 0.00 0.00 61 1013.4
20240523143504 70 125 2.0 5.0 0.00 0.00 0.00 63 1013.4
20240523143004 69 125 2.0 7.0 0.00 0.00 0.00 65 1013.5
20240523142503 69 124 2.0 7.0 0.00 0.00 0.00 65 1013.9
20240523142003 69 122 1.0 5.0 0.00 0.00 0.00 67 1014.0
20240523141503 68 122 1.0 5.0 0.00 0.00 0.00 66 1014.1
20240523141004 68 122 2.0 5.0 0.00 0.00 0.00 66 1014.2
20240523140504 68 122 2.0 5.0 0.00 0.00 0.00 66 1014.4
20240523140004 67 121 2.0 5.0 0.00 0.00 0.00 67 1014.5
20240523135503 67 116 1.0 5.0 0.00 0.00 0.00 69 1014.7
20240523135004 67 111 2.0 6.0 0.00 0.00 0.00 70 1014.8
20240523134504 66 110 2.0 6.0 0.00 0.00 0.00 70 1014.8
20240523134004 66 106 1.0 6.0 0.00 0.00 0.00 73 1014.8
20240523133503 66 99 1.0 6.0 0.00 0.00 0.00 73 1014.9
20240523133004 65 80 1.0 3.0 0.00 0.00 0.00 73 1015.0
20240523132504 65 50 0.0 3.0 0.00 0.00 0.00 74 1015.2
20240523132004 64 28 0.0 2.0 0.00 0.00 0.00 76 1015.1
20240523131503 64 27 0.0 2.0 0.00 0.00 0.00 77 1015.2
20240523131004 64 27 0.0 2.0 0.00 0.00 0.00 79 1015.2
20240523130504 63 0 0.0 0.0 0.00 0.00 0.00 80 1015.2
20240523130004 63 0 0.0 0.0 0.00 0.00 0.00 81 1014.9
20240523125503 62 0 0.0 0.0 0.00 0.00 0.00 82 1014.8
20240523125003 62 0 0.0 0.0 0.00 0.00 0.00 83 1014.7
20240523124504 62 0 0.0 0.0 0.00 0.00 0.00 84 1014.4
20240523124004 61 0 0.0 0.0 0.00 0.00 0.00 85 1014.4
20240523123503 61 0 0.0 0.0 0.00 0.00 0.00 85 1014.4
20240523123004 61 0 0.0 0.0 0.00 0.00 0.00 85 1014.4
20240523122504 60 0 0.0 0.0 0.00 0.00 0.00 86 1014.4
20240523122004 60 14 0.0 4.0 0.00 0.00 0.00 85 1014.3
20240523121503 60 14 0.0 4.0 0.00 0.00 0.00 85 1014.2
20240523121003 59 0 0.0 0.0 0.00 0.00 0.00 85 1014.1
20240523120503 59 8 0.0 4.0 0.00 0.00 0.00 85 1013.9
20240523120004 59 8 0.0 4.0 0.00 0.00 0.00 84 1013.8
20240523115504 58 299 1.0 4.0 0.00 0.00 0.00 83 1013.6
20240523115004 58 299 1.0 4.0 0.00 0.00 0.00 83 1013.5
20240523114504 58 299 1.0 4.0 0.00 0.00 0.00 82 1013.6
20240523114004 58 299 1.0 4.0 0.00 0.00 0.00 82 1013.6
20240523113504 58 299 1.0 4.0 0.00 0.00 0.00 82 1013.5
20240523113003 58 299 1.0 4.0 0.00 0.00 0.00 81 1013.5
20240523112503 58 299 1.0 4.0 0.00 0.00 0.00 81 1013.6
20240523112004 58 299 1.0 4.0 0.00 0.00 0.00 80 1013.5
20240523111504 58 299 1.0 4.0 0.00 0.00 0.00 80 1013.5
20240523111004 58 299 1.0 4.0 0.00 0.00 0.00 80 1013.4
20240523110504 58 299 1.0 4.0 0.00 0.00 0.00 80 1013.6
20240523110004 58 299 1.0 4.0 0.00 0.00 0.00 80 1013.4
20240523105503 58 299 1.0 4.0 0.00 0.00 0.00 79 1013.3
20240523105004 58 299 1.0 4.0 0.00 0.00 0.00 80 1013.3
20240523104504 58 299 1.0 4.0 0.00 0.00 0.00 79 1013.2
20240523104004 58 299 1.0 4.0 0.00 0.00 0.00 79 1013.2
20240523103503 58 299 1.0 4.0 0.00 0.00 0.00 80 1013.2
20240523103003 58 299 1.0 4.0 0.00 0.00 0.00 80 1013.1
20240523102503 58 299 1.0 4.0 0.00 0.00 0.00 80 1013.2
20240523102004 58 299 1.0 4.0 0.00 0.00 0.00 80 1013.1
20240523101504 59 299 1.0 4.0 0.00 0.00 0.00 79 1013.1
20240523101004 59 299 1.0 4.0 0.00 0.00 0.00 79 1013.1
20240523100503 59 299 1.0 4.0 0.00 0.00 0.00 79 1013.0
20240523100003 59 299 1.0 4.0 0.00 0.00 0.00 79 1013.1
20240523095503 59 299 1.0 4.0 0.00 0.00 0.00 79 1013.1
20240523095004 59 299 1.0 4.0 0.00 0.00 0.00 79 1013.1
20240523094504 59 299 1.0 4.0 0.00 0.00 0.00 79 1013.2
20240523094004 59 299 1.0 4.0 0.00 0.00 0.00 79 1013.3
20240523093503 59 299 1.0 4.0 0.00 0.00 0.00 78 1013.4
20240523093003 60 299 1.0 4.0 0.00 0.00 0.00 78 1013.5
20240523092503 60 299 1.0 4.0 0.00 0.00 0.00 78 1013.5
20240523092004 60 299 1.0 4.0 0.00 0.00 0.00 77 1013.4
20240523091503 60 299 1.0 4.0 0.00 0.00 0.00 77 1013.4
20240523091004 60 299 1.0 4.0 0.00 0.00 0.00 77 1013.2
20240523090504 60 299 1.0 4.0 0.00 0.00 0.00 77 1013.1
20240523090004 60 299 1.0 4.0 0.00 0.00 0.00 77 1013.1
20240523085504 60 299 1.0 4.0 0.00 0.00 0.00 76 1013.1
20240523085003 60 299 1.0 4.0 0.00 0.05 0.00 76 1013.2
20240523084503 60 299 1.0 4.0 0.00 0.05 0.00 77 1013.2
20240523084004 61 299 1.0 4.0 0.00 0.05 0.00 77 1013.2
20240523083504 61 299 1.0 4.0 0.00 0.05 0.00 77 1013.2
20240523083004 61 299 1.0 4.0 0.00 0.05 0.00 76 1013.1
20240523082503 61 299 1.0 4.0 0.00 0.05 0.00 76 1013.0
20240523082004 61 299 1.0 4.0 0.00 0.05 0.00 76 1013.0
20240523081503 61 299 1.0 4.0 0.00 0.05 0.00 76 1012.9
20240523081004 61 299 1.0 4.0 0.00 0.05 0.00 76 1012.9
20240523080503 61 299 1.0 4.0 0.00 0.05 0.00 77 1012.8
20240523080004 61 299 1.0 4.0 0.00 0.05 0.00 77 1012.9
20240523075504 61 299 1.0 4.0 0.00 0.05 0.00 77 1012.9
20240523075004 61 299 1.0 4.0 0.00 0.05 0.00 77 1012.9
20240523074504 61 299 1.0 4.0 0.00 0.05 0.00 77 1012.9
20240523074004 62 299 1.0 4.0 0.00 0.05 0.00 77 1012.8
20240523073503 62 299 1.0 4.0 0.00 0.05 0.00 77 1012.8
20240523073004 62 299 1.0 4.0 0.00 0.05 0.00 76 1012.9
20240523072504 62 299 1.0 4.0 0.00 0.06 0.00 76 1012.9
20240523072004 62 299 1.0 4.0 0.00 0.06 0.00 76 1012.9
20240523071504 62 299 1.0 4.0 0.00 0.06 0.00 76 1012.9
20240523071004 62 299 1.0 4.0 0.00 0.07 0.00 76 1013.0
20240523070503 62 299 1.0 4.0 0.00 0.08 0.00 75 1013.1
20240523070003 62 299 1.0 4.0 0.00 0.09 0.00 75 1013.2
20240523065503 62 300 1.0 7.0 0.00 0.09 0.00 75 1013.4
20240523065004 62 301 1.0 7.0 0.00 0.09 0.00 75 1013.5
20240523064504 63 302 1.0 4.0 0.00 0.09 0.00 75 1013.5
20240523064004 63 301 1.0 4.0 0.00 0.09 0.00 75 1013.5
20240523063504 63 301 1.0 4.0 0.00 0.09 0.00 75 1013.6
20240523063004 63 301 1.0 4.0 0.00 0.09 0.00 75 1013.7
20240523062503 63 301 1.0 4.0 0.00 0.09 0.00 74 1013.7
20240523062003 63 301 1.0 3.0 0.00 0.09 0.00 74 1013.7
20240523061503 63 301 1.0 3.0 0.00 0.09 0.00 74 1013.7
20240523061004 64 301 1.0 4.0 0.00 0.09 0.00 74 1013.6
20240523060504 64 301 1.0 4.0 0.00 0.09 0.00 73 1013.6
20240523060004 64 301 1.0 3.0 0.00 0.09 0.00 73 1013.7
20240523055503 64 301 1.0 4.0 0.00 0.09 0.00 73 1013.8
20240523055004 64 301 1.0 4.0 0.00 0.09 0.00 73 1013.7
20240523054503 64 301 1.0 3.0 0.00 0.09 0.00 72 1013.5
20240523054004 64 301 1.0 3.0 0.00 0.09 0.00 72 1013.5
20240523053504 64 301 1.0 3.0 0.00 0.09 0.00 72 1013.5
20240523053004 64 300 1.0 4.0 0.00 0.09 0.00 73 1013.4
20240523052504 64 301 1.0 4.0 0.00 0.09 0.00 73 1013.3
20240523052004 65 301 1.0 3.0 0.00 0.09 0.00 73 1013.2
20240523051503 65 301 1.0 4.0 0.00 0.09 0.00 73 1013.2
20240523051003 65 301 1.0 4.0 0.00 0.09 0.00 73 1013.1
20240523050503 65 301 2.0 4.0 0.00 0.09 0.00 74 1012.9
20240523050004 65 301 1.0 3.0 0.00 0.09 0.00 73 1012.9
20240523045504 65 301 1.0 6.0 0.00 0.09 0.00 74 1013.1
20240523045004 65 301 1.0 6.0 0.00 0.09 0.00 74 1013.1
20240523044504 65 301 1.0 4.0 0.00 0.09 0.00 73 1013.1
20240523044004 66 301 2.0 4.0 0.00 0.09 0.00 73 1013.1
20240523043503 66 300 2.0 4.0 0.00 0.09 0.00 73 1013.0
20240523043003 66 284 2.0 7.0 0.00 0.09 0.00 73 1013.1
20240523042503 66 265 2.0 7.0 0.00 0.09 0.00 72 1013.0
20240523042004 66 256 1.0 4.0 0.00 0.09 0.00 71 1013.0
20240523041504 66 252 1.0 3.0 0.00 0.09 0.00 70 1013.0
20240523041004 66 252 0.0 1.0 0.00 0.09 0.00 70 1012.9
20240523040504 67 252 0.0 2.0 0.00 0.09 0.00 69 1012.9
20240523040004 67 252 0.0 2.0 0.00 0.09 0.00 69 1012.8
20240523035503 67 251 0.0 1.0 0.00 0.09 0.09 68 1012.7
20240523035004 67 252 0.0 2.0 0.00 0.09 0.09 68 1012.6
20240523034503 67 252 0.0 2.0 0.00 0.09 0.09 68 1012.5
20240523034004 68 252 0.0 2.0 0.00 0.09 0.09 68 1012.4
20240523033503 68 252 0.0 3.0 0.00 0.09 0.09 68 1012.5
20240523033004 68 252 1.0 3.0 0.00 0.09 0.09 69 1012.4
20240523032504 68 252 1.0 3.0 0.00 0.09 0.09 68 1012.4
20240523032004 68 252 0.0 2.0 0.00 0.09 0.09 67 1012.4
20240523031504 69 252 1.0 3.0 0.00 0.09 0.09 67 1012.4
20240523031004 69 252 1.0 3.0 0.00 0.09 0.09 66 1012.4
20240523030503 69 252 0.0 3.0 0.00 0.09 0.09 65 1012.4
20240523030003 69 252 0.0 1.0 0.00 0.09 0.09 64 1012.4
20240523025503 70 252 0.0 2.0 0.00 0.09 0.09 64 1012.3
20240523025004 70 252 1.0 4.0 0.00 0.09 0.09 64 1012.3
20240523024504 70 252 1.0 4.0 0.00 0.09 0.09 64 1012.3
20240523024004 70 251 1.0 6.0 0.00 0.09 0.09 64 1012.3
20240523023504 70 251 2.0 6.0 0.00 0.09 0.09 63 1012.2
20240523023004 71 251 2.0 6.0 0.00 0.09 0.09 62 1012.2
20240523022503 71 259 2.0 7.0 0.00 0.09 0.09 62 1012.2
20240523022003 71 269 2.0 7.0 0.00 0.09 0.09 62 1012.2
20240523021503 71 273 2.0 5.0 0.00 0.09 0.09 62 1012.1
20240523021004 72 273 1.0 4.0 0.00 0.09 0.09 61 1012.0
20240523020504 72 273 1.0 5.0 0.00 0.09 0.09 60 1011.9
20240523020004 72 273 1.0 5.0 0.00 0.09 0.09 59 1011.9
20240523015504 72 273 1.0 4.0 0.00 0.09 0.09 58 1011.9
20240523015004 72 273 1.0 7.0 0.00 0.09 0.09 58 1011.8
20240523014503 73 273 2.0 7.0 0.00 0.09 0.09 58 1011.8
20240523014003 73 274 2.0 4.0 0.00 0.09 0.09 57 1011.8
20240523013503 73 274 2.0 4.0 0.00 0.09 0.09 56 1011.7
20240523013004 74 273 2.0 5.0 0.00 0.09 0.09 57 1011.5
20240523012504 74 273 2.0 7.0 0.00 0.09 0.09 57 1011.2
20240523012004 74 277 2.0 8.0 0.00 0.09 0.09 57 1011.0
20240523011504 74 284 2.0 8.0 0.00 0.09 0.09 55 1010.7
20240523011004 74 284 2.0 7.0 0.00 0.09 0.09 56 1010.4
20240523010503 75 283 2.0 7.0 0.00 0.09 0.09 56 1010.3
20240523010003 75 284 2.0 7.0 0.00 0.09 0.09 55 1010.2
20240523005503 75 286 2.0 7.0 0.00 0.09 0.09 54 1010.4
20240523005004 75 281 2.0 7.0 0.00 0.09 0.09 53 1010.5
20240523004504 75 270 3.0 9.0 0.00 0.09 0.09 53 1010.5
20240523004004 76 270 3.0 9.0 0.00 0.09 0.09 52 1010.4
20240523003504 76 276 3.0 9.0 0.00 0.09 0.09 52 1010.3
20240523003004 76 280 3.0 9.0 0.00 0.09 0.09 51 1010.3
20240523002503 76 283 3.0 13.0 0.00 0.09 0.09 51 1010.2
20240523002003 76 281 4.0 13.0 0.00 0.09 0.09 50 1010.1
20240523001503 76 282 4.0 12.0 0.00 0.09 0.09 50 1010.1
20240523001004 76 285 5.0 12.0 0.00 0.09 0.09 51 1010.3
20240523000503 76 287 5.0 12.0 0.00 0.09 0.09 51 1010.3
20240523000004 76 296 5.0 13.0 0.00 0.09 0.09 50 1010.2
20240522235504 76 303 4.0 13.0 0.00 0.09 0.09 50 1010.1
20240522235004 77 291 5.0 15.0 0.00 0.09 0.09 51 1010.0
20240522234504 77 279 5.0 15.0 0.00 0.09 0.09 51 1010.0
20240522234004 77 269 5.0 14.0 0.00 0.09 0.09 51 1009.8
20240522233504 77 262 6.0 16.0 0.00 0.09 0.09 51 1009.8
20240522233003 77 269 6.0 16.0 0.00 0.09 0.09 50 1009.9
20240522232503 77 277 5.0 13.0 0.00 0.09 0.09 51 1009.7
20240522232004 78 266 4.0 10.0 0.00 0.09 0.09 52 1009.3
20240522231504 78 258 2.0 10.0 0.00 0.09 0.09 53 1009.4
20240522231004 78 256 0.0 7.0 0.00 0.09 0.09 52 1009.3
20240522230504 78 253 0.0 6.0 0.00 0.09 0.09 53 1009.2
20240522230004 78 251 0.0 6.0 0.00 0.09 0.09 53 1009.1
20240522225503 78 252 1.0 10.0 0.00 0.09 0.09 52 1009.3
20240522225003 78 263 2.0 10.0 0.00 0.09 0.09 49 1009.3
20240522224503 78 270 4.0 9.0 0.00 0.09 0.09 49 1009.2
20240522224004 78 270 4.0 11.0 0.00 0.09 0.09 48 1009.2
20240522223504 78 268 5.0 11.0 0.00 0.09 0.09 47 1009.3
20240522223004 78 264 8.0 18.0 0.00 0.09 0.09 47 1009.6
20240522222504 78 262 8.0 18.0 0.00 0.09 0.09 45 1010.0
20240522222003 79 263 7.0 22.0 0.00 0.09 0.09 46 1010.1
20240522221503 79 267 7.0 22.0 0.00 0.09 0.09 46 1010.4
20240522221004 79 270 8.0 22.0 0.00 0.09 0.09 44 1010.5
20240522220504 80 266 8.0 22.0 0.00 0.09 0.09 44 1010.6
20240522220004 80 262 7.0 21.0 0.00 0.09 0.09 44 1010.6
20240522215503 81 262 5.0 19.0 0.00 0.09 0.09 45 1010.4
20240522215004 81 259 5.0 19.0 0.00 0.09 0.09 45 1010.2
20240522214503 81 268 7.0 17.0 0.00 0.09 0.09 45 1010.2
20240522214004 81 272 7.0 18.0 0.00 0.09 0.09 44 1010.2
20240522213503 81 265 9.0 21.0 0.00 0.09 0.09 43 1010.2
20240522213004 82 259 8.0 21.0 0.00 0.09 0.09 43 1010.1
20240522212504 82 248 5.0 17.0 0.00 0.09 0.09 46 1009.7
20240522212004 82 253 4.0 17.0 0.00 0.09 0.09 45 1009.7
20240522211504 82 281 5.0 14.0 0.00 0.09 0.09 46 1009.4
20240522211003 82 287 6.0 14.0 0.00 0.09 0.09 45 1009.0
20240522210503 82 280 5.0 13.0 0.00 0.09 0.09 45 1009.0
20240522210004 82 271 5.0 14.0 0.00 0.09 0.09 44 1009.0
20240522205504 82 283 5.0 16.0 0.00 0.09 0.09 45 1008.9
20240522205004 83 285 5.0 16.0 0.00 0.09 0.09 44 1008.8
20240522204504 83 286 3.0 13.0 0.00 0.09 0.09 43 1008.7
20240522204004 83 300 2.0 9.0 0.00 0.09 0.09 43 1008.7
20240522203503 84 251 4.0 18.0 0.00 0.09 0.09 45 1008.7
20240522203003 84 257 6.0 18.0 0.00 0.09 0.09 41 1008.7
20240522202503 84 270 4.0 12.0 0.00 0.09 0.09 42 1008.7
20240522202004 84 269 4.0 14.0 0.00 0.09 0.09 43 1008.5
20240522201504 84 256 5.0 15.0 0.00 0.09 0.09 41 1008.6
20240522201004 84 252 6.0 18.0 0.00 0.09 0.09 43 1008.8
20240522200503 84 253 7.0 18.0 0.00 0.09 0.09 41 1008.9
20240522200003 84 257 4.0 19.0 0.00 0.09 0.09 41 1008.9
20240522195503 84 255 5.0 19.0 0.00 0.09 0.09 41 1009.0
20240522195004 84 248 5.0 15.0 0.00 0.09 0.09 42 1009.1
20240522194504 84 245 4.0 14.0 0.00 0.09 0.09 44 1009.0
20240522194004 84 247 4.0 14.0 0.00 0.09 0.09 43 1009.0
20240522193504 84 260 4.0 12.0 0.00 0.09 0.09 45 1008.9
20240522193004 83 261 3.0 15.0 0.00 0.09 0.09 45 1008.9
20240522192503 83 256 3.0 15.0 0.00 0.09 0.09 47 1009.1
20240522192003 83 270 5.0 13.0 0.00 0.09 0.09 47 1009.1
20240522191503 83 266 6.0 15.0 0.00 0.09 0.09 48 1009.2
20240522191004 83 256 6.0 18.0 0.00 0.09 0.09 47 1009.2
20240522190504 83 254 5.0 18.0 0.00 0.09 0.09 48 1009.4
20240522190004 83 249 5.0 18.0 0.00 0.09 0.09 52 1009.5
20240522185504 83 255 4.0 18.0 0.00 0.09 0.09 52 1009.8
20240522185003 82 271 5.0 12.0 0.00 0.09 0.09 51 1009.6
20240522184503 82 270 7.0 15.0 0.00 0.09 0.09 49 1009.8
20240522184004 82 265 6.0 17.0 0.00 0.09 0.09 51 1009.9
20240522183504 82 265 6.0 17.0 0.00 0.09 0.09 51 1010.0
20240522183004 82 268 6.0 13.0 0.00 0.09 0.09 52 1009.9
20240522182504 82 270 6.0 17.0 0.00 0.09 0.09 53 1010.0
20240522182004 82 270 7.0 17.0 0.00 0.09 0.09 51 1010.0
20240522181503 82 272 6.0 16.0 0.00 0.09 0.09 51 1009.9
20240522181004 82 274 5.0 14.0 0.00 0.09 0.09 53 1009.8
20240522180504 82 268 4.0 14.0 0.00 0.09 0.09 51 1009.8
20240522180004 81 283 4.0 12.0 0.00 0.09 0.09 52 1009.5
20240522175504 81 291 6.0 13.0 0.00 0.09 0.09 53 1009.4
20240522175004 81 289 7.0 15.0 0.00 0.09 0.09 53 1009.5
20240522174503 81 289 6.0 16.0 0.00 0.09 0.09 55 1009.3
20240522174003 81 270 5.0 16.0 0.00 0.09 0.09 53 1009.3
20240522173503 81 265 7.0 18.0 0.00 0.09 0.09 52 1009.4
20240522173004 81 263 8.0 18.0 0.00 0.09 0.09 51 1009.5
20240522172504 81 263 7.0 18.0 0.00 0.09 0.09 53 1009.5
20240522172004 81 262 8.0 23.0 0.00 0.09 0.09 53 1009.5
20240522171503 81 256 9.0 23.0 0.00 0.09 0.09 51 1009.6
20240522171003 81 257 9.0 20.0 0.00 0.09 0.09 53 1009.5
20240522170503 81 263 8.0 21.0 0.00 0.09 0.09 54 1009.6
20240522170004 81 269 6.0 21.0 0.00 0.09 0.09 55 1009.6
20240522165504 81 258 6.0 18.0 0.00 0.09 0.09 55 1009.7
20240522165004 81 256 8.0 18.0 0.00 0.09 0.09 56 1009.7
20240522164503 80 263 6.0 17.0 0.00 0.09 0.09 58 1009.7